STARLINK-5130 (53997 NORAD) Tracking and Keplerian Element Data

This shows tracking and keplerian element data for the satellite.

Feedback or suggestion? Click here.




ElementValue
Catalog53997
NameSTARLINK-5130
Epoch Orbit130
Epoch Day324.91667824
Epoch Year2022
RAAN224.1834
Inclination53.2147
Eccentricity0.0002686
Argument of Perigee15.2677
Mean Anonmoly182.9821
Mean Motion15.73196577
Decay Rate0.00029549
L11 53997U 22125AK 22324.91667824 .00029549 00000+0 21423-3 0 9994
L22 53997 53.2147 224.1834 0002686 15.2677 182.9821 15.73196577 1307



Live tracking and technical data element details for STARLINK-5130 (NORAD 53997). STARLINK-5130 can be tracked NOW for your location showing map with azimuth and elevation plus other details from your city location.







IsCatalogInMostPopularTable: catalog: 53997, numindb: 2
Update: records affected: 1



GetName: 53997 STARLINK-5130

Hit Count: updated at: Fri, 09 Dec 2022 19:56:32 GMT